sat.trackr.live / text

‹ back to catalog

STARLINK-36431

NORAD 67421 · 2026-005T

PAYLOAD ACTIVE UNKNOWN

§ Identity

Operator
Country
US
Launch date
2026-01-12
Launch site
AFETR
Launch vehicle
Mass (kg)
RCS (m²)

Purposes: comms

External: N2YO · Heavens-Above · Gunter

§ Orbital elements

Epoch: 2026-05-24T09:54:32.086368Z

Period
94.27 min
Inclination
42.9998°
Eccentricity
0.0001602
Mean motion
15.27578547 rev/d
Perigee alt
482.0 km
Apogee alt
484.2 km
Semi-major
6,861.2 km
B*
5.1098e-4
RAAN
170.6619°
Arg perigee
277.4995°
Mean anomaly
82.5675°
Rev number
2,027

§ Raw data

STARLINK-364311 67421U 26005T   26144.41287137  .00013825  00000+0  51098-3 0  99972 67421  42.9998 170.6619 0001602 277.4995  82.5675 15.27578547 20270

JSON: /api/v1/satellites/67421 · /tle

For live sub-satellite position, see the globe view (requires WebGL).

§ Visibility from observer

Set your observer location to see the next 7 days of passes ≥ 10°. The values pass through the URL so the page stays shareable.

No JS? Fill the form by hand. The geolocation button needs JavaScript.